FW1075 Weather Reports


time (UTC)temp
C
wind
direction
speed
KPH
gust
KPH
rain 1hr
cm
rain 24hr
cm
rain mn
cm
humidity
%
barometer
mb
20260509021123 12 172 1.6 4.8 0.00 0.00 0.00 82 1011.5
20260509020122 12 295 3.2 4.8 0.00 0.00 0.00 81 1011.4
20260509015122 12 286 3.2 4.8 0.00 0.00 0.00 81 1011.4
20260509014123 12 202 3.2 4.8 0.00 0.00 0.00 81 1011.2
20260509013123 12 255 1.6 4.8 0.00 0.00 0.00 81 1011.1
20260509012123 12 133 1.6 6.4 0.00 0.00 0.00 80 1010.9
20260509011121 12 168 1.6 6.4 0.00 0.00 0.00 80 1010.7
20260509010121 12 196 1.6 4.8 0.00 0.00 0.00 79 1010.4
20260509005121 12 136 3.2 8.0 0.00 0.00 0.00 78 1010.4
20260509004121 13 146 3.2 6.4 0.00 0.00 0.00 77 1010.4
20260509003121 13 149 1.6 4.8 0.00 0.00 0.00 72 1010.2
20260509002121 13 118 0.0 3.2 0.00 0.00 0.00 70 1010.2
20260509001121 13 87 0.0 3.2 0.00 0.00 0.00 69 1010.2
20260509000142 13 90 0.0 3.2 0.00 0.00 0.00 67 1010.1
20260508235121 13 63 0.0 4.8 0.00 0.00 0.00 65 1010.1
20260508234121 14 54 1.6 4.8 0.00 0.00 0.00 64 1009.8
20260508233121 15 83 3.2 6.4 0.00 0.00 0.00 62 1009.7
20260508232121 15 59 4.8 9.7 0.00 0.00 0.00 62 1009.7
20260508231123 15 55 3.2 6.4 0.00 0.00 0.00 60 1009.6
20260508230122 15 280 1.6 4.8 0.00 0.00 0.00 60 1009.5
20260508225122 15 75 3.2 4.8 0.00 0.00 0.00 60 1009.5
20260508224121 15 105 4.8 6.4 0.00 0.00 0.00 60 1009.6
20260508223124 16 352 4.8 6.4 0.00 0.00 0.00 59 1009.7
20260508222143 16 312 4.8 8.0 0.00 0.00 0.00 59 1009.5
20260508221122 16 307 6.4 9.7 0.00 0.00 0.00 57 1009.4
20260508220122 16 351 4.8 9.7 0.00 0.00 0.00 56 1009.6
20260508215123 16 333 4.8 11.3 0.00 0.00 0.00 57 1009.6
20260508214122 16 251 4.8 9.7 0.00 0.00 0.00 58 1009.7
20260508213122 16 333 6.4 9.7 0.00 0.00 0.00 55 1009.7
20260508212123 16 237 4.8 8.0 0.00 0.00 0.00 55 1009.7
20260508211124 17 338 4.8 9.7 0.00 0.00 0.00 54 1009.7
20260508210144 17 308 4.8 8.0 0.00 0.00 0.00 53 1009.7
20260508205122 16 180 4.8 8.0 0.00 0.00 0.00 57 1009.7
20260508204122 16 326 6.4 12.9 0.00 0.00 0.00 55 1009.7
20260508203122 16 329 8.0 12.9 0.00 0.00 0.00 55 1009.6
20260508202142 16 315 6.4 12.9 0.00 0.00 0.00 58 1009.8
20260508201121 15 293 9.7 16.1 0.00 0.00 0.00 58 1009.4
20260508200123 17 282 9.7 20.9 0.00 0.00 0.00 50 1009.2
20260508195124 18 283 6.4 12.9 0.00 0.00 0.00 44 1009.2
20260508194121 18 304 4.8 9.7 0.00 0.00 0.00 45 1009.2
20260508193121 17 273 4.8 9.7 0.00 0.00 0.00 46 1009.5
20260508192121 17 265 4.8 11.3 0.00 0.00 0.00 46 1009.6
20260508191121 17 306 4.8 14.5 0.00 0.00 0.00 45 1009.6
20260508190121 17 260 6.4 12.9 0.00 0.00 0.00 43 1009.6
20260508185121 18 292 6.4 12.9 0.00 0.00 0.00 42 1009.5
20260508184125 18 262 8.0 14.5 0.00 0.00 0.00 41 1009.5
20260508183145 18 268 9.7 19.3 0.00 0.00 0.00 42 1009.6
20260508182122 19 282 8.0 12.9 0.00 0.00 0.00 40 1009.6
20260508181143 21 280 8.0 16.1 0.00 0.00 0.00 39 1009.7
20260508180122 20 277 9.7 16.1 0.00 0.00 0.00 40 1009.7
20260508175123 21 268 8.0 16.1 0.00 0.00 0.00 38 1009.7
20260508174123 20 265 9.7 24.1 0.00 0.00 0.00 40 1009.7
20260508173146 20 239 9.7 20.9 0.00 0.00 0.00 39 1009.9
20260508172122 20 297 9.7 24.1 0.00 0.00 0.00 41 1009.7
20260508171126 19 263 8.0 27.4 0.00 0.00 0.00 42 1009.9
20260508171121 19 262 8.0 27.4 0.00 0.00 0.00 42 1009.9
20260508170122 19 268 8.0 20.9 0.00 0.00 0.00 40 1010.1
20260508165122 19 270 8.0 19.3 0.00 0.00 0.00 41 1010.1
20260508164144 18 267 9.7 17.7 0.00 0.00 0.00 42 1010.0
20260508163122 17 233 11.3 19.3 0.00 0.00 0.00 42 1010.1
20260508162121 18 290 8.0 17.7 0.00 0.00 0.00 42 1010.2
20260508161122 18 283 6.4 11.3 0.00 0.00 0.00 42 1010.2
20260508160122 18 296 9.7 20.9 0.00 0.00 0.00 42 1010.2
20260508155121 18 301 11.3 25.7 0.00 0.00 0.00 41 1010.2
20260508154121 19 306 6.4 16.1 0.00 0.00 0.00 40 1010.4
20260508153123 18 287 6.4 12.9 0.00 0.00 0.00 41 1010.4
20260508152121 18 310 6.4 12.9 0.00 0.00 0.00 43 1010.5
20260508151123 18 298 4.8 11.3 0.00 0.00 0.00 42 1010.6
20260508150121 17 317 9.7 19.3 0.00 0.00 0.00 44 1010.7
20260508145121 17 323 8.0 14.5 0.00 0.00 0.00 43 1010.7
20260508144123 17 274 8.0 11.3 0.00 0.00 0.00 42 1010.7
20260508143121 16 271 8.0 14.5 0.00 0.00 0.00 45 1010.9
20260508142122 16 305 6.4 12.9 0.00 0.00 0.00 46 1010.8
20260508141122 16 311 6.4 11.3 0.00 0.00 0.00 50 1011.0
20260508140143 16 327 8.0 16.1 0.00 0.00 0.00 49 1010.9
20260508135123 16 308 4.8 9.7 0.00 0.00 0.00 52 1010.9
20260508134122 15 286 6.4 12.9 0.00 0.00 0.00 54 1010.8
20260508133144 15 292 8.0 12.9 0.00 0.00 0.00 54 1010.8
20260508132123 15 334 6.4 11.3 0.00 0.00 0.00 57 1010.8
20260508131123 14 280 6.4 9.7 0.00 0.00 0.00 59 1011.0
20260508130121 14 297 6.4 16.1 0.00 0.00 0.00 59 1010.9
20260508125121 13 306 8.0 12.9 0.00 0.00 0.00 60 1010.9
20260508124121 13 304 8.0 14.5 0.00 0.00 0.00 64 1011.0
20260508123121 13 286 8.0 14.5 0.00 0.00 0.00 63 1011.2
20260508122121 13 316 6.4 12.9 0.00 0.00 0.00 66 1011.2
20260508121123 13 304 4.8 9.7 0.00 0.00 0.00 69 1011.1
20260508120143 12 305 6.4 11.3 0.00 0.00 0.00 70 1011.0
20260508115123 12 286 4.8 6.4 0.00 0.00 0.00 72 1011.0
20260508114121 12 325 4.8 11.3 0.00 0.00 0.00 72 1011.0
20260508113121 12 315 4.8 8.0 0.00 0.00 0.00 74 1010.8
20260508112122 11 318 6.4 9.7 0.00 0.00 0.00 77 1010.8
20260508111121 11 312 4.8 9.7 0.00 0.00 0.00 77 1010.6
20260508110121 10 322 3.2 6.4 0.00 0.00 0.00 80 1010.5
20260508105123 10 295 1.6 3.2 0.00 0.00 0.00 86 1010.5
20260508104123 8 270 0.0 1.6 0.00 0.00 0.00 90 1010.4
20260508103123 7 289 0.0 3.2 0.00 0.00 0.00 94 1010.2
20260508102121 7 253 0.0 3.2 0.00 0.00 0.00 93 1010.2
20260508101122 7 296 3.2 6.4 0.00 0.00 0.00 93 1010.1
20260508100122 8 305 3.2 8.0 0.00 0.00 0.00 91 1010.0
20260508095143 8 300 3.2 8.0 0.00 0.00 0.00 91 1010.0
20260508094122 8 326 3.2 4.8 0.00 0.00 0.00 89 1009.7
20260508093146 8 21 4.8 8.0 0.00 0.00 0.00 89 1009.7
20260508092124 8 330 4.8 8.0 0.00 0.00 0.00 89 1009.8
20260508091122 8 331 4.8 9.7 0.00 0.00 0.00 88 1009.7
20260508090121 8 313 6.4 8.0 0.00 0.00 0.00 88 1009.6
20260508085123 8 333 4.8 8.0 0.00 0.03 0.00 88 1009.6
20260508084121 8 332 4.8 9.7 0.00 0.03 0.00 87 1009.5
20260508083122 8 338 6.4 11.3 0.00 0.03 0.00 86 1009.4
20260508082146 8 337 4.8 9.7 0.00 0.03 0.00 85 1009.4
20260508081124 8 351 6.4 12.9 0.00 0.03 0.00 85 1009.1
20260508080142 8 18 6.4 12.9 0.00 0.03 0.00 82 1009.1
20260508075121 8 336 4.8 8.0 0.00 0.03 0.00 81 1009.1
20260508074123 8 327 4.8 11.3 0.00 0.03 0.00 80 1009.2
20260508073142 9 321 6.4 11.3 0.00 0.03 0.00 79 1009.2
20260508072121 9 347 6.4 14.5 0.00 0.03 0.00 77 1009.2
20260508071123 10 332 6.4 11.3 0.00 0.03 0.00 73 1009.2
20260508070146 10 11 6.4 11.3 0.00 0.05 0.00 72 1009.2
20260508065121 10 321 6.4 12.9 0.00 0.05 0.00 75 1009.2
20260508064121 10 2 4.8 11.3 0.00 0.13 0.00 84 1009.2
20260508063122 10 329 6.4 9.7 0.00 0.20 0.00 77 1009.4
20260508062143 9 310 4.8 9.7 0.00 0.28 0.00 74 1008.5
20260508061143 7 344 0.0 3.2 0.00 0.36 0.00 92 1007.9
20260508060122 7 74 1.6 3.2 0.00 0.38 0.00 96 1007.8
20260508055145 7 86 1.6 3.2 0.00 0.38 0.00 99 1007.8
20260508054126 7 93 1.6 4.8 0.00 0.38 0.00 99 1007.7
20260508053125 7 90 0.0 0.0 0.00 0.38 0.00 99 1007.5
20260508052123 7 223 0.0 3.2 0.00 0.38 0.00 99 1007.6
20260508051121 7 56 0.0 3.2 0.00 0.38 0.00 99 1007.2
20260508050142 7 135 0.0 0.0 0.00 0.38 0.00 99 1007.5
20260508045121 7 90 0.0 0.0 0.00 0.38 0.00 99 1007.5
20260508044121 7 45 0.0 0.0 0.00 0.38 0.00 99 1007.4
20260508043121 7 270 0.0 0.0 0.00 0.38 0.00 99 1007.2
20260508042121 7 113 0.0 0.0 0.00 0.38 0.00 98 1007.2
20260508041122 8 180 0.0 0.0 0.00 0.38 0.00 98 1007.5
20260508040121 8 203 0.0 0.0 0.00 0.38 0.00 98 1007.6
20260508035121 8 23 0.0 0.0 0.00 0.38 0.38 98 1007.6
20260508034142 8 68 0.0 0.0 0.00 0.38 0.38 97 1007.6
20260508033127 8 180 0.0 0.0 0.00 0.38 0.38 95 1007.7
20260508032127 8 203 0.0 0.0 0.00 0.38 0.38 96 1007.7
20260508031121 8 338 0.0 0.0 0.00 0.38 0.38 94 1007.6
20260508030123 8 270 0.0 0.0 0.00 0.38 0.38 93 1007.6
20260508025122 8 99 0.0 3.2 0.00 0.41 0.38 93 1007.6
20260508024123 8 113 0.0 0.0 0.00 0.41 0.38 90 1007.7
20260508023122 8 315 0.0 0.0 0.00 0.41 0.38 88 1007.6
20260508022123 9 113 0.0 0.0 0.00 0.41 0.38 86 1007.6